FW3266 Weather Reports


Display with metric or nautical units.
time (UTC)temp
F
wind
direction
speed
MPH
gust
MPH
rain 1hr
in
rain 24hr
in
rain mn
in
humidity
%
barometer
mb
20260507044351 58 254 2.0 5.0 0.00 0.05 0.00 91 1007.3
20260507044126 58 271 2.0 5.0 0.00 0.05 0.00 91 1007.2
20260507043346 58 316 3.0 5.0 0.00 0.05 0.00 91 1007.2
20260507043113 58 259 2.0 4.0 0.00 0.05 0.00 91 1007.2
20260507042343 58 256 2.0 7.0 0.00 0.05 0.00 91 1007.2
20260507041837 58 260 2.0 7.0 0.00 0.05 0.00 91 1007.2
20260507041338 58 241 2.0 6.0 0.00 0.05 0.00 91 1007.2
20260507040833 58 241 3.0 6.0 0.00 0.05 0.00 91 1007.2
20260507040324 58 238 3.0 6.0 0.00 0.05 0.00 91 1007.2
20260507035819 58 250 3.0 6.0 0.00 0.05 0.05 91 1007.4
20260507035322 58 233 3.0 8.0 0.00 0.05 0.05 91 1007.6
20260507035318 58 246 3.0 8.0 0.00 0.05 0.05 91 1007.5
20260507034316 57 255 3.0 7.0 0.00 0.05 0.05 91 1007.5
20260507034310 58 240 4.0 6.0 0.00 0.05 0.05 91 1007.6
20260507033302 57 262 4.0 7.0 0.00 0.05 0.05 91 1007.3
20260507032801 57 248 4.0 7.0 0.00 0.05 0.05 91 1007.4
20260507032259 57 280 3.0 7.0 0.00 0.05 0.05 91 1007.5
20260507031754 57 234 3.0 7.0 0.00 0.05 0.05 91 1007.3
20260507031255 57 243 4.0 7.0 0.00 0.05 0.05 91 1007.2
20260507030749 57 244 3.0 7.0 0.00 0.05 0.05 91 1007.2
20260507030248 57 253 4.0 9.0 0.00 0.05 0.05 91 1007.3
20260507025745 57 197 4.0 9.0 0.00 0.05 0.05 91 1007.2
20260507025243 57 230 4.0 6.0 0.00 0.05 0.05 91 1007.2
20260507024739 57 245 3.0 6.0 0.00 0.05 0.05 91 1007.1
20260507024233 57 255 3.0 6.0 0.00 0.05 0.05 91 1007.1
20260507023727 57 212 3.0 10.0 0.00 0.05 0.05 91 1007.0
20260507023222 57 252 4.0 10.0 0.00 0.05 0.05 91 1007.2
20260507022723 57 240 4.0 7.0 0.00 0.05 0.05 91 1007.0
20260507022217 57 279 3.0 7.0 0.00 0.05 0.05 91 1007.1
20260507021716 57 250 3.0 8.0 0.00 0.05 0.05 91 1007.2
20260507021213 57 240 3.0 8.0 0.00 0.05 0.05 91 1007.3
20260507020701 57 226 3.0 8.0 0.00 0.05 0.05 91 1007.4
20260507020201 58 249 3.0 8.0 0.00 0.05 0.05 91 1007.6
20260507015655 57 245 3.0 8.0 0.00 0.05 0.05 91 1007.7
20260507015148 58 178 4.0 9.0 0.00 0.05 0.05 91 1007.7
20260507014646 58 241 4.0 10.0 0.00 0.05 0.05 91 1007.7
20260507014137 58 236 4.0 10.0 0.00 0.05 0.05 91 1007.6
20260507013914 58 238 4.0 8.0 0.01 0.05 0.05 91 1007.7
20260507013126 58 298 5.0 8.0 0.01 0.05 0.05 91 1007.8
20260507012621 58 187 3.0 8.0 0.01 0.05 0.05 91 1007.9
20260507012116 58 240 3.0 8.0 0.01 0.05 0.05 91 1007.9
20260507011615 58 226 4.0 9.0 0.01 0.05 0.05 91 1007.9
20260507011112 58 253 5.0 9.0 0.01 0.05 0.05 91 1007.7
20260507010607 58 261 5.0 9.0 0.02 0.05 0.05 90 1007.7
20260507010105 58 274 4.0 9.0 0.02 0.05 0.05 90 1007.7
20260507005601 58 238 4.0 8.0 0.02 0.05 0.05 90 1007.8
20260507005055 58 239 4.0 7.0 0.02 0.05 0.05 91 1007.7
20260507004556 58 248 5.0 10.0 0.02 0.05 0.05 91 1007.8
20260507004052 58 250 6.0 11.0 0.02 0.05 0.05 91 1007.8
20260507003544 58 233 5.0 11.0 0.01 0.04 0.04 90 1007.8
20260507003037 58 270 5.0 10.0 0.01 0.04 0.04 90 1007.9
20260507002535 58 256 5.0 10.0 0.01 0.04 0.04 90 1007.8
20260507002028 58 245 4.0 10.0 0.02 0.04 0.04 90 1007.8
20260507001520 58 236 5.0 10.0 0.02 0.04 0.04 90 1007.7
20260507001018 58 262 6.0 16.0 0.03 0.04 0.04 90 1007.7
20260507000510 58 239 5.0 16.0 0.02 0.03 0.03 90 1007.7
20260507000004 58 249 5.0 14.0 0.02 0.03 0.03 90 1007.8
20260506235731 58 198 5.0 13.0 0.02 0.03 0.03 90 1007.6
20260506235000 58 197 6.0 13.0 0.02 0.03 0.03 90 1007.8
20260506234731 58 198 6.0 13.0 0.02 0.03 0.03 90 1007.7
20260506234227 58 203 3.0 11.0 0.03 0.03 0.03 89 1007.9
20260506233448 58 236 4.0 11.0 0.03 0.03 0.03 89 1008.0
20260506232944 59 248 4.0 11.0 0.03 0.03 0.03 89 1008.0
20260506232436 59 238 4.0 8.0 0.03 0.03 0.03 89 1008.0
20260506231933 59 245 5.0 11.0 0.02 0.02 0.02 89 1008.0
20260506231426 59 218 4.0 10.0 0.02 0.02 0.02 89 1008.0
20260506230920 59 218 3.0 10.0 0.01 0.01 0.01 89 1008.0
20260506230416 59 231 4.0 10.0 0.01 0.01 0.01 88 1008.0
20260506225916 59 238 4.0 10.0 0.01 0.01 0.01 88 1007.9
20260506225409 59 250 5.0 9.0 0.01 0.01 0.01 88 1008.0
20260506224909 59 219 6.0 9.0 0.01 0.01 0.01 87 1008.0
20260506224405 59 241 5.0 9.0 0.01 0.01 0.01 87 1008.2
20260506223908 59 193 3.0 13.0 0.00 0.00 0.00 87 1008.5
20260506223359 60 198 6.0 13.0 0.00 0.00 0.00 86 1008.3
20260506222855 60 220 4.0 9.0 0.00 0.00 0.00 86 1008.4
20260506222627 60 231 5.0 11.0 0.00 0.00 0.00 86 1008.4
20260506221844 60 253 5.0 11.0 0.00 0.00 0.00 85 1008.5
20260506221336 60 264 6.0 9.0 0.00 0.00 0.00 85 1008.5
20260506221110 61 248 5.0 9.0 0.00 0.00 0.00 85 1008.5
20260506220606 61 248 6.0 9.0 0.00 0.00 0.00 85 1008.5
20260506215826 61 197 5.0 9.0 0.00 0.00 0.00 85 1008.5
20260506215326 61 261 4.0 13.0 0.00 0.00 0.00 85 1008.6
20260506214824 61 245 5.0 13.0 0.00 0.00 0.00 84 1008.5
20260506214316 61 237 5.0 14.0 0.00 0.00 0.00 84 1008.5
20260506213812 61 255 6.0 14.0 0.00 0.00 0.00 83 1008.5
20260506213304 62 221 7.0 14.0 0.00 0.00 0.00 83 1008.5
20260506212800 62 168 7.0 14.0 0.00 0.00 0.00 83 1008.5
20260506212253 62 169 6.0 10.0 0.00 0.00 0.00 83 1008.8
20260506211750 62 252 6.0 13.0 0.00 0.00 0.00 83 1008.8
20260506211242 62 259 5.0 13.0 0.00 0.00 0.00 83 1008.7
20260506211005 62 172 6.0 11.0 0.00 0.00 0.00 83 1008.8
20260506210746 62 172 6.0 11.0 0.00 0.00 0.00 83 1008.8
20260506210237 62 214 6.0 12.0 0.00 0.00 0.00 84 1008.7
20260506210015 61 204 7.0 12.0 0.00 0.00 0.00 84 1008.8
20260506205233 61 259 6.0 11.0 0.00 0.00 0.00 83 1009.0
20260506204728 61 206 6.0 13.0 0.00 0.00 0.00 84 1008.9
20260506204223 61 212 6.0 15.0 0.00 0.00 0.00 84 1008.9
20260506203955 61 271 6.0 16.0 0.00 0.00 0.00 84 1009.0
20260506203218 61 252 6.0 16.0 0.00 0.00 0.00 84 1009.0
20260506202718 61 224 6.0 16.0 0.00 0.00 0.00 84 1009.1
20260506202237 62 177 4.0 9.0 0.00 0.00 0.00 83 1009.1
20260506202229 62 169 5.0 16.0 0.00 0.00 0.00 83 1009.0
20260506201201 62 246 5.0 10.0 0.00 0.00 0.00 81 1009.2
20260506200700 62 242 6.0 12.0 0.00 0.00 0.00 80 1009.3
20260506200153 63 230 7.0 12.0 0.00 0.00 0.00 79 1009.3
20260506195650 63 242 7.0 12.0 0.00 0.00 0.00 77 1009.3
20260506195142 64 237 5.0 18.0 0.00 0.00 0.00 76 1009.4
20260506194638 64 247 7.0 18.0 0.00 0.00 0.00 75 1009.4
20260506194131 65 259 8.0 15.0 0.00 0.00 0.00 75 1009.4
20260506193626 65 252 6.0 16.0 0.00 0.00 0.00 75 1009.4
20260506193120 65 232 7.0 22.0 0.00 0.00 0.00 75 1009.5
20260506192616 65 203 6.0 22.0 0.00 0.00 0.00 75 1009.5
20260506192108 65 198 6.0 15.0 0.00 0.00 0.00 74 1009.4
20260506191604 65 234 8.0 18.0 0.00 0.00 0.00 74 1009.4
20260506191056 65 204 8.0 18.0 0.00 0.00 0.00 74 1009.3
20260506190553 65 228 7.0 15.0 0.00 0.00 0.00 74 1009.3
20260506190045 65 263 7.0 16.0 0.00 0.00 0.00 74 1009.2
20260506185820 65 254 9.0 16.0 0.00 0.00 0.00 73 1009.4
20260506185034 65 204 7.0 18.0 0.00 0.00 0.00 73 1009.3
20260506184530 65 224 9.0 18.0 0.00 0.00 0.00 73 1009.4
20260506184026 66 205 6.0 14.0 0.00 0.00 0.00 73 1009.6
20260506183524 66 249 9.0 14.0 0.00 0.00 0.00 72 1009.6
20260506183254 66 263 7.0 21.0 0.00 0.00 0.00 72 1009.4
20260506182520 66 167 8.0 25.0 0.00 0.00 0.00 72 1009.6
20260506182013 66 271 8.0 25.0 0.00 0.00 0.00 71 1009.6
20260506181510 67 213 8.0 25.0 0.00 0.00 0.00 71 1009.6
20260506181004 67 205 8.0 15.0 0.00 0.00 0.00 70 1009.8
20260506180504 67 207 7.0 15.0 0.00 0.00 0.00 69 1009.9
20260506175958 68 240 8.0 23.0 0.00 0.00 0.00 69 1010.1
20260506175452 68 259 8.0 23.0 0.00 0.00 0.00 70 1010.1
20260506174946 68 232 8.0 22.0 0.00 0.00 0.00 70 1010.1
20260506174442 68 219 11.0 22.0 0.00 0.00 0.00 69 1010.0
20260506173935 68 207 13.0 19.0 0.00 0.00 0.00 69 1010.2
20260506173432 69 191 6.0 18.0 0.00 0.00 0.00 68 1010.0
20260506172923 69 211 10.0 16.0 0.00 0.00 0.00 67 1010.1
20260506172419 69 241 6.0 14.0 0.00 0.00 0.00 70 1010.0
20260506171911 68 214 8.0 21.0 0.00 0.00 0.00 70 1010.0
20260506171407 68 159 8.0 31.0 0.00 0.00 0.00 70 1010.0
20260506170908 68 253 11.0 31.0 0.00 0.00 0.00 69 1010.1
20260506170635 68 244 10.0 21.0 0.00 0.00 0.00 69 1010.2
20260506170130 68 204 8.0 21.0 0.00 0.00 0.00 69 1010.3
20260506165400 69 236 7.0 22.0 0.00 0.00 0.00 68 1010.3
20260506165355 69 222 9.0 16.0 0.00 0.00 0.00 68 1010.3
20260506164346 69 271 9.0 22.0 0.00 0.00 0.00 68 1010.4
20260506163839 68 256 7.0 22.0 0.00 0.00 0.00 69 1010.6
20260506163334 68 194 9.0 22.0 0.00 0.00 0.00 68 1010.6
20260506163106 69 207 10.0 16.0 0.00 0.00 0.00 67 1010.6
20260506162329 69 250 9.0 14.0 0.00 0.00 0.00 67 1010.7
20260506161822 69 271 8.0 14.0 0.00 0.00 0.00 67 1010.9
20260506161318 69 249 5.0 12.0 0.00 0.00 0.00 67 1010.9
20260506160818 69 264 6.0 16.0 0.00 0.00 0.00 69 1011.1
20260506160310 69 249 7.0 16.0 0.00 0.00 0.00 68 1011.1
20260506155807 69 249 6.0 18.0 0.00 0.00 0.00 67 1011.2
20260506155306 69 220 6.0 18.0 0.00 0.00 0.00 67 1011.3
20260506155037 69 236 7.0 14.0 0.00 0.00 0.00 67 1011.5
20260506154256 69 227 7.0 18.0 0.00 0.00 0.00 68 1011.7
20260506153750 69 241 11.0 18.0 0.00 0.00 0.00 67 1011.8
20260506153243 69 194 7.0 15.0 0.00 0.00 0.00 66 1011.6
20260506152736 69 261 7.0 16.0 0.00 0.00 0.00 67 1011.7
20260506152524 70 252 6.0 16.0 0.00 0.00 0.00 66 1011.7
20260506152519 70 246 5.0 15.0 0.00 0.00 0.00 67 1011.6
20260506151234 70 249 7.0 15.0 0.00 0.00 0.00 66 1011.6
20260506150725 70 248 5.0 15.0 0.00 0.00 0.00 67 1011.7
20260506150222 70 243 6.0 12.0 0.00 0.00 0.00 66 1011.4
20260506145715 69 231 6.0 12.0 0.00 0.00 0.00 67 1011.6
20260506145210 69 243 6.0 12.0 0.00 0.00 0.00 66 1011.4
20260506144711 70 210 7.0 14.0 0.00 0.00 0.00 65 1011.2
20260506144203 70 255 5.0 14.0 0.00 0.00 0.00 65 1011.3
20260506143701 70 244 8.0 20.0 0.00 0.00 0.00 66 1011.4
20260506143153 70 205 8.0 20.0 0.00 0.00 0.00 67 1011.5
20260506142655 69 229 8.0 17.0 0.00 0.00 0.00 66 1011.4
20260506142149 69 181 9.0 15.0 0.00 0.00 0.00 67 1011.5
20260506141642 69 255 6.0 12.0 0.00 0.00 0.00 68 1011.5
20260506141138 69 239 7.0 18.0 0.00 0.00 0.00 67 1011.3
20260506140630 69 222 9.0 18.0 0.00 0.00 0.00 68 1011.5
20260506140131 69 248 8.0 23.0 0.00 0.00 0.00 68 1011.7
20260506135904 69 188 8.0 23.0 0.00 0.00 0.00 70 1011.9
20260506135119 68 229 7.0 18.0 0.00 0.00 0.00 70 1011.9
20260506134620 69 235 10.0 18.0 0.00 0.00 0.00 70 1012.0
20260506134116 68 241 6.0 9.0 0.00 0.00 0.00 70 1012.1
20260506133608 68 201 4.0 17.0 0.00 0.00 0.00 72 1012.1
20260506133104 67 233 7.0 17.0 0.00 0.00 0.00 73 1012.0
20260506132559 66 237 5.0 10.0 0.00 0.00 0.00 73 1012.0
20260506132057 65 266 6.0 28.0 0.00 0.00 0.00 74 1012.0
20260506131553 65 241 5.0 28.0 0.00 0.00 0.00 75 1011.9
20260506131055 64 302 6.0 14.0 0.00 0.00 0.00 76 1012.1
20260506130548 64 181 5.0 11.0 0.00 0.00 0.00 76 1012.1
20260506130320 64 223 5.0 12.0 0.00 0.00 0.00 76 1012.1
20260506125543 64 265 8.0 12.0 0.00 0.00 0.00 77 1012.0
20260506125036 63 255 6.0 12.0 0.00 0.00 0.00 78 1011.9
20260506124813 63 240 7.0 12.0 0.00 0.00 0.00 78 1011.9
20260506124033 62 248 5.0 12.0 0.00 0.00 0.00 79 1011.7
20260506123525 62 238 7.0 12.0 0.00 0.00 0.00 79 1011.8
20260506123020 62 257 7.0 10.0 0.00 0.00 0.00 79 1011.9
20260506122515 62 225 5.0 10.0 0.00 0.00 0.00 80 1012.1
20260506122009 61 206 4.0 10.0 0.00 0.00 0.00 80 1012.1
20260506121745 61 274 4.0 10.0 0.00 0.00 0.00 80 1012.2
20260506121253 61 256 5.0 17.0 0.00 0.00 0.00 80 1012.2
20260506120747 61 230 5.0 10.0 0.00 0.00 0.00 80 1012.3
20260506120511 61 197 8.0 17.0 0.00 0.00 0.00 80 1012.2
20260506115452 61 251 6.0 11.0 0.00 0.00 0.00 81 1012.4
20260506114947 61 240 4.0 11.0 0.00 0.00 0.00 81 1012.5
20260506114441 60 214 5.0 9.0 0.00 0.00 0.00 81 1012.5
20260506113936 60 256 5.0 9.0 0.00 0.00 0.00 81 1012.5
20260506113429 60 214 4.0 14.0 0.00 0.00 0.00 82 1012.5
20260506112929 60 223 6.0 14.0 0.00 0.00 0.00 82 1012.4
20260506112425 60 210 4.0 9.0 0.00 0.00 0.00 82 1012.5
20260506111925 60 242 4.0 10.0 0.00 0.00 0.00 83 1012.4
20260506111418 60 252 6.0 10.0 0.00 0.00 0.00 82 1012.3
20260506110915 60 241 6.0 10.0 0.00 0.00 0.00 82 1012.4
20260506110408 60 189 5.0 10.0 0.00 0.00 0.00 82 1012.5
20260506105903 60 255 6.0 10.0 0.00 0.00 0.00 82 1012.5
20260506105623 60 269 5.0 10.0 0.00 0.00 0.00 82 1012.5
20260506104843 60 219 4.0 9.0 0.00 0.00 0.00 82 1012.4
20260506104339 60 162 5.0 11.0 0.00 0.00 0.00 82 1012.4
20260506103840 60 237 5.0 11.0 0.00 0.00 0.00 83 1012.4
20260506103336 60 219 5.0 9.0 0.00 0.00 0.00 83 1012.4
20260506102827 60 266 4.0 8.0 0.00 0.00 0.00 83 1012.3
20260506102321 60 248 5.0 8.0 0.00 0.00 0.00 83 1012.3
20260506101818 60 249 3.0 11.0 0.00 0.00 0.00 83 1012.3
20260506101551 60 255 6.0 11.0 0.00 0.00 0.00 83 1012.2
20260506101056 60 258 6.0 10.0 0.00 0.00 0.00 83 1012.2
20260506100314 60 231 6.0 11.0 0.00 0.00 0.00 83 1012.1
20260506095807 60 256 6.0 11.0 0.00 0.00 0.00 83 1012.1
20260506095533 59 224 5.0 11.0 0.00 0.00 0.00 83 1012.2
20260506094755 60 236 6.0 11.0 0.00 0.00 0.00 83 1012.2
20260506094525 59 172 4.0 11.0 0.00 0.00 0.00 82 1012.1
20260506093743 59 227 5.0 10.0 0.00 0.00 0.00 82 1012.1
20260506093241 59 235 6.0 10.0 0.00 0.00 0.00 82 1012.1
20260506092741 59 243 5.0 9.0 0.00 0.00 0.00 82 1012.2
20260506092238 60 229 5.0 12.0 0.00 0.00 0.00 82 1012.2
20260506091735 60 243 4.0 12.0 0.00 0.00 0.00 82 1012.3
20260506091504 60 213 4.0 12.0 0.00 0.00 0.00 82 1012.2
20260506090729 60 176 6.0 12.0 0.00 0.00 0.00 82 1012.3
20260506090222 60 249 6.0 11.0 0.00 0.00 0.00 82 1012.3
20260506085720 60 228 5.0 11.0 0.00 0.00 0.00 82 1012.3
20260506085211 60 198 4.0 11.0 0.00 0.00 0.00 82 1012.3
20260506084706 60 243 5.0 11.0 0.00 0.00 0.00 81 1012.4
20260506084200 60 271 4.0 11.0 0.00 0.00 0.00 81 1012.4
20260506083656 60 243 5.0 10.0 0.00 0.00 0.00 81 1012.4
20260506083148 60 242 6.0 14.0 0.00 0.00 0.00 81 1012.3
20260506082642 60 249 6.0 14.0 0.00 0.00 0.00 81 1012.2
20260506082137 60 253 5.0 11.0 0.00 0.00 0.00 81 1012.3
20260506081636 60 233 6.0 11.0 0.00 0.00 0.00 80 1012.3
20260506081134 60 245 5.0 11.0 0.00 0.00 0.00 80 1012.2
20260506080625 60 276 6.0 11.0 0.00 0.00 0.00 80 1012.2
20260506080122 60 245 5.0 9.0 0.00 0.00 0.00 80 1012.3
20260506073104 61 245 7.0 16.0 0.00 0.00 0.00 78 1012.0
20260506072600 61 256 8.0 16.0 0.00 0.00 0.00 78 1012.0
20260506072100 61 236 7.0 13.0 0.00 0.00 0.00 78 1012.0
20260506071832 61 255 5.0 13.0 0.00 0.00 0.00 78 1011.8
20260506071057 61 241 8.0 13.0 0.00 0.00 0.00 78 1012.0
20260506070549 61 238 7.0 17.0 0.00 0.00 0.00 78 1012.0
20260506062004 61 255 6.0 16.0 0.00 0.00 0.00 77 1011.7
20260506061500 61 240 6.0 14.0 0.00 0.00 0.00 77 1011.7
20260506060955 61 229 6.0 14.0 0.00 0.00 0.00 77 1011.8
20260506060454 61 217 8.0 18.0 0.00 0.00 0.00 77 1011.8
20260506051417 61 267 7.0 13.0 0.00 0.00 0.00 75 1012.2
20260506050911 61 237 8.0 13.0 0.00 0.00 0.00 75 1012.3
20260506050702 61 228 7.0 14.0 0.00 0.00 0.00 75 1012.3
20260506050134 61 247 6.0 15.0 0.00 0.00 0.00 75 1012.3
20260506044903 61 252 8.0 14.0 0.00 0.00 0.00 75 1012.3